Flag for Portugal Weather past 2 weeks in Funchal, Madeira, Portugal

Now
63 °F

Passing clouds.


Feels Like: 63 °F
Forecast: 64 / 70 °F
Wind: 16 mph from North

Location: Aeroporto Da Madeira

Current Time: May 23, 2015 at 3:25:26 AM

Latest Report: May 23, 2015 at 3:00 AM


Visibility: N/A

Pressure: 30.21 "Hg

Humidity: 64%

Dew point: 50 °F

Location of FunchalLocation

Historic Weather in Funchal — Graph

°F

Funchal temperature yesterday

Maximum temperature yesterday: 70 °F (at 12:30 PM)
Minimum temperature yesterday: 63 °F (at 12:00 AM)
Average temperature yesterday: 65 °F

Past Weeks' High & Low Weather Summary

 TemperatureHumidityPressure
High81 °F (May 14, 4:00 PM)88% (May 8, 2:00 AM)30.33 "Hg (May 8, 2:00 AM)
Low61 °F (May 8, 6:30 AM)13% (May 14, 8:00 PM)30.04 "Hg (May 11, 6:30 PM)
Average67 °F63%30.18 "Hg
* Reported May 8 2:00 AM — May 23 2:00 AM, Funchal, Weather by CustomWeather, © 2015

Note: Actual official high and low records may vary slightly from our data, if they occured in-between our weather recording intervals... More about our weather records

Advertising

Funchal weather history for previous 24 hours

 ConditionsComfort  
Time TempWeatherWind HumidityBarometerVisibility
2:00 AM
Sat, May 23
63 °FPassing clouds.28 mph64%30.21 "HgN/A
1:30 AM63 °FPassing clouds.25 mph64%30.21 "HgN/A
1:00 AM63 °FPassing clouds.21 mph64%30.24 "HgN/A
12:30 AM63 °FPassing clouds.16 mph64%30.24 "HgN/A
12:00 AM63 °FPassing clouds.7 mph68%30.24 "HgN/A
11:30 PM
Fri, May 22
63 °FPassing clouds.12 mph59%30.24 "HgN/A
11:00 PM63 °FPassing clouds.10 mph68%30.24 "HgN/A
10:30 PM64 °FPassing clouds.16 mph60%30.24 "HgN/A
10:00 PM64 °FPassing clouds.14 mph60%30.24 "HgN/A
9:30 PM64 °FPassing clouds.14 mph64%30.24 "HgN/A
9:00 PM64 °FPassing clouds.17 mph64%30.24 "HgN/A
8:30 PM64 °FPassing clouds.18 mph64%30.21 "HgN/A
8:00 PM64 °FPassing clouds.21 mph64%30.21 "HgN/A
7:30 PM66 °FPassing clouds.22 mph60%30.21 "HgN/A
7:00 PM66 °FPassing clouds.23 mph56%30.21 "HgN/A
6:30 PM66 °FPassing clouds.26 mph56%30.21 "HgN/A
6:00 PM68 °FPassing clouds.28 mph53%30.21 "HgN/A
5:30 PM68 °FPassing clouds.26 mph49%30.21 "HgN/A
5:00 PM68 °FPassing clouds.28 mph56%30.24 "HgN/A
4:30 PM70 °FPassing clouds.29 mph53%30.24 "HgN/A
4:00 PM70 °FPassing clouds.30 mph50%30.21 "HgN/A
3:30 PM70 °FPassing clouds.28 mph50%30.21 "HgN/A
3:00 PM70 °FPassing clouds.29 mph50%30.24 "HgN/A
2:30 PM68 °FPassing clouds.28 mph56%30.24 "HgN/A
2:00 PM70 °FPassing clouds.26 mph50%30.24 "HgN/A
1:30 PM68 °FPassing clouds.22 mph53%30.24 "HgN/A
1:00 PM70 °FPassing clouds.24 mph50%30.27 "HgN/A
12:30 PM70 °FPassing clouds.22 mph46%30.27 "HgN/A
12:00 PM68 °FPassing clouds.23 mph53%30.27 "HgN/A
11:30 AM68 °FPassing clouds.17 mph53%30.27 "HgN/A
11:00 AM66 °FPassing clouds.20 mph56%30.27 "HgN/A
10:30 AM66 °FPassing clouds.21 mph56%30.27 "HgN/A
10:00 AM66 °FPassing clouds.25 mph56%30.27 "HgN/A
9:30 AM64 °FPassing clouds.24 mph64%30.27 "HgN/A
9:00 AM64 °FPassing clouds.23 mph60%30.24 "HgN/A
8:30 AM64 °FPassing clouds.15 mph60%30.24 "HgN/A
8:00 AM63 °FPassing clouds.22 mph64%30.24 "HgN/A
7:30 AM63 °FPassing clouds.21 mph64%30.24 "HgN/A
7:00 AM63 °FPassing clouds.9 mph64%30.27 "HgN/A
6:30 AM63 °FPassing clouds.17 mph68%30.27 "HgN/A
6:00 AM63 °FPassing clouds.21 mph64%30.24 "HgN/A
5:30 AM63 °FPassing clouds.8 mph64%30.27 "HgN/A
5:00 AM63 °FPassing clouds.16 mph64%30.27 "HgN/A
4:30 AM63 °FPassing clouds.16 mph64%30.27 "HgN/A
4:00 AM63 °FPassing clouds.18 mph64%30.27 "HgN/A
3:30 AM63 °FPassing clouds.18 mph64%30.27 "HgN/A
3:00 AM63 °FPassing clouds.18 mph64%30.27 "HgN/A
Weather by CustomWeather, © 2015

See weather overviewHow to use our weather pages